Weather History for KHCO - March, 2013

Change the Weather History Date:

Wednesday, March 20, 2013

  Actual Average Record
Temperature  
Mean Temperature 4 °F -  
Max Temperature 14 °F 32 °F 59 °F (1945)
Min Temperature -5 °F 15 °F -19 °F (1955)
Degree Days  
Heating Degree Days 60    
Moisture  
Dew Point -3 °F    
Average Humidity 72    
Maximum Humidity 85    
Minimum Humidity 62    
Precipitation  
Precipitation 0.00 in - - ()
Sea Level Pressure  
Sea Level Pressure 30.26 in    
Wind  
Wind Speed 12 mph (NW)    
Max Wind Speed 18 mph    
Max Gust Speed 23 mph    
Visibility 10 miles    
Events      
Averages and records for this station are not official NWS values.
T = Trace of Precipitation, MM = Missing Value Source: NWS Daily Summary

Daily Weather History Graph

Daily Weather History Graph

Search for Another Location

Airport or City:

Trip Planner

Search our weather history database for the weather conditions in past years. The results will help you decide how hot, cold, wet, or windy it might be!

Date:

Astronomy

Mar. 20, 2013 Rise Set
Actual Time 7:29 AM CDT 7:41 PM CDT
Civil Twilight 6:58 AM CDT 8:12 PM CDT
Nautical Twilight 6:21 AM CDT 8:49 PM CDT
Astronomical Twilight 5:43 AM CDT 9:28 PM CDT
Moon 12:50 PM CDT (3/20) 3:37 AM CDT (3/20)
Length of Visible Light 13h 13m
Length of Day
12h 11m
First Quarter, 59% of the Moon is Illuminated
Mar 20
First Quarter
Mar 27
Full
Apr 2
Last Quarter
Apr 10
New
Apr 18
First Quarter

Hourly Weather History & Observations

Time (CDT) Temp. Windchill Dew Point Humidity Pressure Visibility Wind Dir Wind Speed Gust Speed Precip Events Conditions
12:14 AM 1.4 °F -16.1 °F -5.8 °F 72% 30.28 in 10.0 mi NW 12.7 mph - N/A   Clear
12:34 AM 3.2 °F -13.9 °F -5.8 °F 66% 30.28 in 10.0 mi NNW 12.7 mph - N/A   Clear
12:54 AM 1.4 °F -16.1 °F -5.8 °F 72% 30.29 in 10.0 mi NW 12.7 mph - N/A   Clear
1:14 AM -0.4 °F -18.4 °F -7.6 °F 72% 30.29 in 10.0 mi NW 12.7 mph - N/A   Clear
1:34 AM -0.4 °F -16.7 °F -7.6 °F 72% 30.29 in 10.0 mi NW 10.4 mph - N/A   Clear
1:54 AM -0.4 °F -17.6 °F -7.6 °F 72% 30.29 in 10.0 mi NW 11.5 mph - N/A   Clear
2:14 AM -0.4 °F -17.6 °F -7.6 °F 72% 30.29 in 10.0 mi NW 11.5 mph - N/A   Clear
2:34 AM -0.4 °F -18.4 °F -7.6 °F 72% 30.29 in 10.0 mi NW 12.7 mph - N/A   Clear
2:54 AM 1.4 °F -16.1 °F -7.6 °F 66% 30.29 in 10.0 mi NW 12.7 mph - N/A   Clear
3:14 AM -0.4 °F -19.2 °F -7.6 °F 72% 30.29 in 10.0 mi NW 13.8 mph - N/A   Clear
3:34 AM -0.4 °F -18.4 °F -7.6 °F 72% 30.29 in 10.0 mi NW 12.7 mph - N/A   Clear
3:54 AM -0.4 °F -17.6 °F -7.6 °F 72% 30.29 in 10.0 mi NW 11.5 mph - N/A   Clear
4:14 AM -0.4 °F -16.7 °F -7.6 °F 72% 30.29 in 10.0 mi NW 10.4 mph - N/A   Clear
4:34 AM -0.4 °F -17.6 °F -7.6 °F 72% 30.29 in 10.0 mi NW 11.5 mph - N/A   Clear
4:53 AM -0.4 °F -15.7 °F -7.6 °F 72% 30.29 in 10.0 mi NNW 9.2 mph - N/A   Clear
5:14 AM -0.4 °F -15.7 °F -7.6 °F 72% 30.29 in 10.0 mi NNW 9.2 mph - N/A   Clear
5:34 AM -4.0 °F -21.2 °F -9.4 °F 78% 30.29 in 10.0 mi NW 10.4 mph - N/A   Clear
5:54 AM -4.0 °F -21.2 °F -9.4 °F 78% 30.30 in 10.0 mi NW 10.4 mph - N/A   Clear
6:14 AM -4.0 °F -22.1 °F -9.4 °F 78% 30.30 in 10.0 mi NW 11.5 mph - N/A   Clear
6:34 AM -5.8 °F -23.4 °F -9.4 °F 84% 30.31 in 10.0 mi NW 10.4 mph - N/A   Clear
6:54 AM -5.8 °F -22.4 °F -9.4 °F 84% 30.31 in 10.0 mi NW 9.2 mph - N/A   Clear
7:14 AM -5.8 °F -23.4 °F -9.4 °F 84% 30.31 in 10.0 mi NW 10.4 mph - N/A   Clear
7:34 AM -5.8 °F -22.4 °F -9.4 °F 84% 30.31 in 10.0 mi NW 9.2 mph - N/A   Clear
7:54 AM -5.8 °F -22.4 °F -11.2 °F 77% 30.31 in 10.0 mi NW 9.2 mph - N/A   Clear
8:14 AM -5.8 °F -25.2 °F -11.2 °F 77% 30.31 in 10.0 mi NW 12.7 mph - N/A   Clear
8:34 AM -4.0 °F -21.2 °F -9.4 °F 78% 30.31 in 10.0 mi NW 10.4 mph - N/A   Clear
8:54 AM -2.2 °F -19.9 °F -7.6 °F 78% 30.31 in 10.0 mi NNW 11.5 mph - N/A   Clear
9:14 AM -0.4 °F -16.7 °F -7.6 °F 72% 30.31 in 10.0 mi NNW 10.4 mph - N/A   Clear
9:33 AM -0.4 °F -16.7 °F -7.6 °F 72% 30.31 in 10.0 mi NNW 10.4 mph - N/A   Clear
9:54 AM 1.4 °F -13.5 °F -5.8 °F 72% 30.31 in 10.0 mi NNW 9.2 mph - N/A   Clear
10:14 AM 1.4 °F -14.5 °F -5.8 °F 72% 30.30 in 10.0 mi NNW 10.4 mph - N/A   Clear
10:33 AM 3.2 °F -12.2 °F -5.8 °F 66% 30.30 in 10.0 mi NW 10.4 mph - N/A   Clear
10:54 AM 3.2 °F -12.2 °F -4.0 °F 72% 30.30 in 10.0 mi NNW 10.4 mph - N/A   Clear
11:13 AM 5.0 °F -11.6 °F -4.0 °F 66% 30.29 in 10.0 mi NNW 12.7 mph - N/A   Clear
11:34 AM 6.8 °F -8.6 °F -2.2 °F 67% 30.29 in 10.0 mi NNW 11.5 mph - N/A   Clear
11:54 AM 6.8 °F -10.7 °F -2.2 °F 67% 30.29 in 10.0 mi NW 15.0 mph - N/A   Clear
12:11 PM 6.8 °F -10.0 °F -0.4 °F 72% 30.29 in 10.0 mi NW 13.8 mph - N/A   Clear
12:34 PM 8.6 °F -7.7 °F -0.4 °F 67% 30.28 in 10.0 mi NW 13.8 mph 18.4 mph N/A   Clear
12:53 PM 8.6 °F -8.3 °F 1.4 °F 73% 30.27 in 10.0 mi NW 15.0 mph - N/A   Clear
1:14 PM 10.4 °F -4.8 °F 1.4 °F 67% 30.27 in 10.0 mi NNW 12.7 mph - N/A   Clear
1:34 PM 10.4 °F -6.0 °F 1.4 °F 67% 30.26 in 10.0 mi NW 15.0 mph 23.0 mph N/A   Clear
1:53 PM 10.4 °F -6.0 °F 1.4 °F 67% 30.25 in 10.0 mi NW 15.0 mph 20.7 mph N/A   Clear
2:14 PM 12.2 °F -4.8 °F 1.4 °F 62% 30.25 in 10.0 mi NW 17.3 mph - N/A   Clear
2:34 PM 12.2 °F -4.8 °F 3.2 °F 67% 30.24 in 10.0 mi NW 17.3 mph - N/A   Clear
2:53 PM 12.2 °F -4.3 °F 3.2 °F 67% 30.25 in 10.0 mi NW 16.1 mph 21.9 mph N/A   Clear
3:14 PM 12.2 °F -3.7 °F 3.2 °F 67% 30.24 in 10.0 mi NNW 15.0 mph 20.7 mph N/A   Clear
3:34 PM 12.2 °F -4.3 °F 3.2 °F 67% 30.23 in 10.0 mi NNW 16.1 mph - N/A   Clear
3:54 PM 12.2 °F -3.7 °F 3.2 °F 67% 30.23 in 10.0 mi NW 15.0 mph - N/A   Clear
4:14 PM 14.0 °F -0.8 °F 3.2 °F 62% 30.23 in 10.0 mi NNW 13.8 mph - N/A   Clear
4:34 PM 14.0 °F -1.4 °F 3.2 °F 62% 30.22 in 10.0 mi NNW 15.0 mph - N/A   Clear
4:54 PM 14.0 °F -3.0 °F 3.2 °F 62% 30.22 in 10.0 mi NNW 18.4 mph - N/A   Clear
5:14 PM 12.2 °F -5.3 °F 3.2 °F 67% 30.22 in 10.0 mi NNW 18.4 mph - N/A   Clear
5:34 PM 12.2 °F -3.7 °F 3.2 °F 67% 30.22 in 10.0 mi NNW 15.0 mph - N/A   Clear
5:54 PM 12.2 °F -1.8 °F 3.2 °F 67% 30.22 in 10.0 mi NNW 11.5 mph - N/A   Clear
6:14 PM 12.2 °F -3.7 °F 3.2 °F 67% 30.21 in 10.0 mi NW 15.0 mph - N/A   Clear
6:34 PM 12.2 °F -2.5 °F 3.2 °F 67% 30.21 in 10.0 mi NNW 12.7 mph - N/A   Clear
6:54 PM 10.4 °F -3.3 °F 3.2 °F 73% 30.21 in 10.0 mi NNW 10.4 mph - N/A   Clear
7:14 PM 10.4 °F -3.3 °F 1.4 °F 67% 30.21 in 10.0 mi NNW 10.4 mph - N/A   Clear
7:34 PM 10.4 °F -1.5 °F 1.4 °F 67% 30.21 in 10.0 mi NNW 8.1 mph - N/A   Clear
7:54 PM 6.8 °F -6.9 °F 1.4 °F 79% 30.21 in 10.0 mi NNW 9.2 mph - N/A   Clear
8:14 PM 6.8 °F -6.9 °F -0.4 °F 72% 30.21 in 10.0 mi NNW 9.2 mph - N/A   Clear
8:33 PM 6.8 °F -5.9 °F -0.4 °F 72% 30.21 in 10.0 mi NNW 8.1 mph - N/A   Clear
8:54 PM 3.2 °F -4.2 °F -2.2 °F 78% 30.21 in 10.0 mi WNW 3.5 mph - N/A   Clear
9:14 PM 3.2 °F -9.1 °F -2.2 °F 78% 30.21 in 10.0 mi NW 6.9 mph - N/A   Clear
9:33 PM 1.4 °F -12.5 °F -2.2 °F 85% 30.20 in 10.0 mi NW 8.1 mph - N/A   Clear
9:54 PM 3.2 °F -10.3 °F -2.2 °F 78% 30.20 in 10.0 mi NNW 8.1 mph - N/A   Clear
10:14 PM 3.2 °F -9.1 °F -2.2 °F 78% 30.20 in 10.0 mi NNW 6.9 mph - N/A   Clear
10:33 PM 1.4 °F -9.9 °F -4.0 °F 78% 30.20 in 10.0 mi NNW 5.8 mph - N/A   Clear
10:54 PM 1.4 °F -8.3 °F -5.8 °F 72% 30.19 in 10.0 mi NNW 4.6 mph - N/A   Clear
11:14 PM -0.4 °F -14.7 °F -5.8 °F 78% 30.19 in 10.0 mi North 8.1 mph - N/A   Clear
11:33 PM 1.4 °F -9.9 °F -4.0 °F 78% 30.18 in 10.0 mi North 5.8 mph - N/A   Clear
11:54 PM -2.2 °F -12.5 °F -7.6 °F 78% 30.18 in 10.0 mi NNW 4.6 mph - N/A   Clear